When you browse on this site, cookies collect data to enhance your experience and personalize the content and advertising you see.
Visit our Privacy Policy to learn more. By continuing to use the site, you agree to this use of cookies and data.
  • In Latvia
  • List of Countries
  • For 7 days
  • Water Temperature
  • Weather Map
  • Weather Widgets
  • user-avatar
    Login

    Hourly Weather Kerns

    Today, 19 January, Sunday

    Time Temperature Precipitation Wind Pressure Humidity
    00:00 +29°C° 0.1 mm 2 mps 752 mmHg 91%
    01:00 +28°C° 0.1 mm 2 mps 751 mmHg 93%
    02:00 +28°C° 0 mm 2 mps 751 mmHg 93%
    03:00 +28°C° 0 mm 2 mps 751 mmHg 93%
    04:00 +28°C° 0 mm 2 mps 752 mmHg 91%
    05:00 +28°C° 0 mm 2 mps 752 mmHg 88%
    06:00 +28°C° 0 mm 2 mps 753 mmHg 84%
    07:00 +29°C° 0 mm 1 mps 753 mmHg 81%
    08:00 +32°C° 0 mm 2 mps 753 mmHg 69%
    09:00 +36°C° 0 mm 2 mps 754 mmHg 56%
    10:00 +39°C° 0 mm 2 mps 754 mmHg 52%
    11:00 +39°C° 0.2 mm 2 mps 753 mmHg 47%
    12:00 +40°C° 0.2 mm 2 mps 753 mmHg 42%
    13:00 +40°C° 0.2 mm 2 mps 752 mmHg 38%
    14:00 +40°C° 0.2 mm 2 mps 752 mmHg 39%
    15:00 +40°C° 0.2 mm 2 mps 751 mmHg 41%
    16:00 +38°C° 0 mm 2 mps 751 mmHg 53%
    17:00 +36°C° 0.7 mm 2 mps 751 mmHg 65%
    18:00 +33°C° 0.7 mm 1 mps 752 mmHg 77%
    19:00 +30°C° 0.7 mm 1 mps 752 mmHg 89%
    20:00 +30°C° 1 mm 2 mps 753 mmHg 90%
    21:00 +29°C° 1 mm 2 mps 754 mmHg 90%
    22:00 +29°C° 1 mm 2 mps 754 mmHg 91%
    23:00 +29°C° 0 mm 2 mps 754 mmHg 90%

    Tomorrow, 20 January, Monday

    Time Temperature Precipitation Wind Pressure Humidity
    00:00 +28°C° 0 mm 1 mps 754 mmHg 90%
    01:00 +28°C° 0 mm 1 mps 753 mmHg 89%
    02:00 +28°C° 0 mm 1 mps 753 mmHg 89%
    03:00 +28°C° 0 mm 1 mps 753 mmHg 89%
    04:00 +28°C° 0 mm 1 mps 753 mmHg 89%
    05:00 +28°C° 0 mm 1 mps 753 mmHg 87%
    06:00 +29°C° 0 mm 1 mps 754 mmHg 85%
    07:00 +29°C° 0 mm 1 mps 754 mmHg 83%
    08:00 +32°C° 0.1 mm 1 mps 755 mmHg 72%
    09:00 +35°C° 0.1 mm 1 mps 755 mmHg 61%
    10:00 +37°C° 0.1 mm 1 mps 755 mmHg 50%
    11:00 +39°C° 0 mm 2 mps 755 mmHg 45%
    12:00 +40°C° 0 mm 2 mps 754 mmHg 41%
    13:00 +41°C° 0 mm 2 mps 753 mmHg 37%
    14:00 +40°C° 0 mm 2 mps 753 mmHg 42%
    15:00 +39°C° 0 mm 2 mps 752 mmHg 46%
    16:00 +38°C° 0 mm 2 mps 752 mmHg 51%
    17:00 +36°C° 0.1 mm 2 mps 753 mmHg 59%
    18:00 +34°C° 0.1 mm 2 mps 753 mmHg 68%
    19:00 +31°C° 0.1 mm 1 mps 754 mmHg 77%
    20:00 +30°C° 0.9 mm 1 mps 755 mmHg 82%
    21:00 +30°C° 0.9 mm 1 mps 756 mmHg 86%
    22:00 +29°C° 0.9 mm 1 mps 756 mmHg 91%
    23:00 +29°C° 1.6 mm 2 mps 756 mmHg 91%

    Day after tomorrow, 21 January, Tuesday

    Time Temperature Precipitation Wind Pressure Humidity
    00:00 +29°C° 1.6 mm 2 mps 756 mmHg 92%
    01:00 +28°C° 1.6 mm 3 mps 755 mmHg 92%
    02:00 +28°C° 0 mm 2 mps 755 mmHg 92%
    03:00 +28°C° 0 mm 2 mps 755 mmHg 92%
    04:00 +28°C° 0 mm 2 mps 754 mmHg 91%
    05:00 +28°C° 0 mm 1 mps 755 mmHg 90%
    06:00 +28°C° 0 mm 1 mps 756 mmHg 89%
    07:00 +29°C° 0 mm 1 mps 756 mmHg 88%
    08:00 +31°C° 0 mm 1 mps 756 mmHg 76%
    09:00 +34°C° 0 mm 1 mps 757 mmHg 64%
    10:00 +37°C° 0 mm 1 mps 757 mmHg 52%
    11:00 +38°C° 0.3 mm 2 mps 756 mmHg 53%
    12:00 +38°C° 0.3 mm 2 mps 756 mmHg 54%
    13:00 +38°C° 0.3 mm 2 mps 755 mmHg 54%
    14:00 +37°C° 0.4 mm 2 mps 755 mmHg 56%
    15:00 +37°C° 0.4 mm 2 mps 754 mmHg 58%
    16:00 +36°C° 0.4 mm 2 mps 754 mmHg 60%
    17:00 +34°C° 0.3 mm 2 mps 754 mmHg 68%
    18:00 +32°C° 0.3 mm 2 mps 755 mmHg 77%
    19:00 +30°C° 0.3 mm 1 mps 755 mmHg 85%
    20:00 +30°C° 0.3 mm 1 mps 755 mmHg 87%
    21:00 +29°C° 0.3 mm 1 mps 756 mmHg 90%
    22:00 +28°C° 0.3 mm 1 mps 756 mmHg 92%
    23:00 +28°C° 0 mm 1 mps 756 mmHg 93%

    22 January, Wednesday

    Time Temperature Precipitation Wind Pressure Humidity
    00:00 +28°C° 0 mm 1 mps 756 mmHg 93%
    01:00 +28°C° 0 mm 2 mps 756 mmHg 93%
    02:00 +28°C° 0.4 mm 2 mps 756 mmHg 93%
    03:00 +28°C° 0.4 mm 2 mps 755 mmHg 93%
    04:00 +28°C° 0.4 mm 2 mps 755 mmHg 93%
    05:00 +28°C° 0.3 mm 2 mps 756 mmHg 91%
    06:00 +28°C° 0.3 mm 1 mps 757 mmHg 89%
    07:00 +29°C° 0.3 mm 1 mps 757 mmHg 87%
    08:00 +31°C° 0.2 mm 2 mps 757 mmHg 77%
    09:00 +34°C° 0.2 mm 2 mps 757 mmHg 67%
    10:00 +36°C° 0.2 mm 2 mps 757 mmHg 58%
    11:00 +36°C° 0.4 mm 3 mps 757 mmHg 60%
    12:00 +36°C° 0.4 mm 3 mps 756 mmHg 63%
    13:00 +36°C° 0.4 mm 3 mps 756 mmHg 65%
    14:00 +35°C° 0.9 mm 3 mps 755 mmHg 68%
    15:00 +35°C° 0.9 mm 3 mps 755 mmHg 71%
    16:00 +34°C° 0.9 mm 3 mps 755 mmHg 74%
    17:00 +33°C° 0.7 mm 3 mps 755 mmHg 79%
    18:00 +30°C° 0.7 mm 3 mps 755 mmHg 85%
    19:00 +29°C° 0.7 mm 3 mps 755 mmHg 90%
    20:00 +29°C° 0.7 mm 2 mps 756 mmHg 92%
    21:00 +29°C° 0.7 mm 2 mps 756 mmHg 94%
    22:00 +28°C° 0.7 mm 1 mps 757 mmHg 95%
    23:00 +28°C° 0.3 mm 1 mps 757 mmHg 96%

    23 January, Thursday

    Time Temperature Precipitation Wind Pressure Humidity
    00:00 +28°C° 0.3 mm 2 mps 757 mmHg 96%
    01:00 +28°C° 0.3 mm 2 mps 757 mmHg 97%
    02:00 +28°C° 0.2 mm 2 mps 756 mmHg 97%
    03:00 +28°C° 0.2 mm 2 mps 756 mmHg 97%
    04:00 +28°C° 0.2 mm 2 mps 756 mmHg 97%
    05:00 +28°C° 0.1 mm 2 mps 756 mmHg 96%
    06:00 +28°C° 0.1 mm 2 mps 757 mmHg 96%
    07:00 +28°C° 0.1 mm 2 mps 757 mmHg 95%
    08:00 +29°C° 0.1 mm 2 mps 757 mmHg 91%
    09:00 +30°C° 0.1 mm 2 mps 757 mmHg 86%
    10:00 +31°C° 0.1 mm 2 mps 757 mmHg 82%
    11:00 +32°C° 0 mm 2 mps 757 mmHg 77%
    12:00 +32°C° 0 mm 2 mps 756 mmHg 72%
    13:00 +34°C° 0 mm 3 mps 756 mmHg 68%
    14:00 +34°C° 0 mm 3 mps 755 mmHg 66%
    15:00 +34°C° 0 mm 3 mps 755 mmHg 65%
    16:00 +34°C° 0 mm 3 mps 754 mmHg 64%
    17:00 +32°C° 0 mm 2 mps 755 mmHg 70%
    18:00 +30°C° 0 mm 2 mps 755 mmHg 77%
    19:00 +29°C° 0 mm 2 mps 756 mmHg 84%
    20:00 +28°C° 0 mm 2 mps 756 mmHg 86%
    21:00 +28°C° 0 mm 2 mps 757 mmHg 87%
    22:00 +28°C° 0 mm 1 mps 757 mmHg 89%
    23:00 +27°C° 0 mm 1 mps 757 mmHg 90%

    24 January, Friday

    Time Temperature Precipitation Wind Pressure Humidity
    00:00 +27°C° 0 mm 1 mps 757 mmHg 91%
    01:00 +27°C° 0 mm 1 mps 757 mmHg 93%
    02:00 +26°C° 0 mm 1 mps 757 mmHg 93%
    03:00 +26°C° 0 mm 1 mps 757 mmHg 94%
    04:00 +26°C° 0 mm 1 mps 756 mmHg 94%
    05:00 +26°C° 0 mm 1 mps 757 mmHg 92%
    06:00 +26°C° 0 mm 1 mps 757 mmHg 90%
    07:00 +26°C° 0 mm 2 mps 758 mmHg 88%
    08:00 +29°C° 0 mm 2 mps 758 mmHg 76%
    09:00 +31°C° 0 mm 2 mps 758 mmHg 63%
    10:00 +35°C° 0 mm 2 mps 758 mmHg 51%
    11:00 +36°C° 0 mm 2 mps 758 mmHg 49%
    12:00 +36°C° 0 mm 3 mps 757 mmHg 46%
    13:00 +37°C° 0 mm 3 mps 757 mmHg 44%
    14:00 +36°C° 0 mm 3 mps 756 mmHg 47%
    15:00 +36°C° 0 mm 3 mps 756 mmHg 49%
    16:00 +35°C° 0 mm 3 mps 755 mmHg 52%
    17:00 +32°C° 0 mm 2 mps 755 mmHg 61%
    18:00 +30°C° 0 mm 2 mps 756 mmHg 69%
    19:00 +28°C° 0 mm 2 mps 756 mmHg 78%
    20:00 +27°C° 0 mm 2 mps 757 mmHg 81%
    21:00 +26°C° 0 mm 1 mps 757 mmHg 85%
    22:00 +26°C° 0 mm 1 mps 758 mmHg 89%
    23:00 +26°C° 0 mm 1 mps 757 mmHg 89%
    Show more